Location: Newark
(44.1667°N, 8.2500°E)
Time: 20:38:31
(UTC+00:00)

Transit 4A - Pass Details

Date: 11 December 2019
Orbit: 871 x 973 km, 66.8° (Epoch: 20 January)

Event Time Altitude Azimuth Distance (km) Brightness Sun altitude
Rises 16:45:30 0° 223° (SW) 3,606 12.3 -9.9°
Reaches altitude 10° 16:48:07 10° 227° (SW) 2,651 11.6 -10.4°
Maximum altitude 16:54:10 57° 306° (NW) 1,077 8.4 -11.4°
Drops below altitude 10° 17:00:07 10° 25° (NNE) 2,594 9.8 -12.4°
Enters shadow 17:00:56 - 27° (NNE) 2,890 10.0 -12.5°
